STARLINK-32787, 62809

Orbit data source: Space-Track

STARLINK-32787, 62809 is a payload satellite owned by SpaceX/Seattle (US) in LEO that was launched on Fri, 24 Jan 2025 UTC via an FALCON 9 launch vehicle from the Air Force Western Test Range (AFWTR). Payload-class satellites include a variety of spacecraft equipped with specific instruments for various scientific and technological missions. These include communications satellites like Starlink; space stations such as the ISS; scientific satellites like the Hubble; Earth observation satellites from companies like Planet Labs, Umbra, and HawkEye 360; GPS; miniature CubeSats for education and research; and military/defense satellites.

Loading next visibility...
Identifier
62809, 2025-018D
Orbit
LEO
Last TLE update
6 hours ago
Origin
Manufacturer
SpaceX/Seattle
Mission
Operational Commercial Communications
Bus & Motor
STARLINK V2M, Unknown motor
Mass
730 kg wet, ~700 kg dry
Launch date (UTC)
2025-01-24 (5 months ago)
Launch vehicle
FALCON 9
Launch site
Air Force Western Test Range (AFWTR)
Object type
Payload
Rocket body
Debris
Shape & HBR
Box + 2 Pan, 29 m
Radar Cross Section
33.884 m², Large (>1 m²)

Expand to show TLE details & history

TLE from 6 hours ago
0 STARLINK-32787
1 62809U 25018D   25183.94933602  .00005996  00000-0  21442-3 0  9991
2 62809  53.1599  29.5057 0001221  92.7455 267.3685 15.30198898 24932
Epoch: 2025-07-02T22:47Z
TLE epoch observation values (Epoch: 2025-07-02T22:47:02.632Z)
Latitude
-0.00005°
Longitude
126.5216°
Altitude
476.157 km
Speed
7.629 km/s
True Right ascension
01h 58m 01s
True Declination
0° 00' 00"
Sunlit
Object was in daylight at epoch
Visualization orbit readout
Latitude
-42.78421°
Longitude
-10.99492°
Altitude
490.206 km
Speed
7.619 km/s
Apparent Right ascension
21h 42m 47s
Apparent Declination
-85° 26' 19"
Sunlit
Object is in full shadow
Visualization observer readout
Local Sidereal Time
16:16:38
Azimuth
174.183° S
Elevation
-39.099°
Doppler factor
1
Orbital elements
Apogee altitude
476.312 km
Perigee altitude
474.638 km
Semi-major axis
6,853.612 km
Eccentricity
0.00012
Inclination
53.1599°
RAAN
29.5057°
Arg. of periapsis
92.7455°
True anomaly
Unknown
Mean anomaly
267.3685°
Eccentric anomaly
Unknown
Mean motion
3.82529 °/min
Orbital period
94.11 mins
BSTAR
0.00021442
Loading maneuver chart data...
Loading SW <> Apogee altitude chart data...
Loading historical data...
Loading historical data...
Loading historical data...
Loading historical data...
Loading historical data...
Loading historical data...
Loading historical data...

STARLINK-32787 Visibility forecast

Observer location: undefined°, undefined°

Span
Click to sort rows by Start time (UTC) header in descending order
Start Az.
Max El. time (UTC)
Max El. Az.
Max El.
End time (UTC)
End Az.
7 mins2025-07-03 16:11:16.732Z217.188° SW2025-07-03 16:15:16.732Z100.775° ESE39.724°2025-07-03 16:18:16.732Z56.617° ENE
4 mins2025-07-03 17:51:16.732Z296.217° NW2025-07-03 17:53:16.732Z340.721° N20.516°2025-07-03 17:55:16.732Z19.831° NNE
5 mins2025-07-03 22:48:16.732Z332.753° NNW2025-07-03 22:50:16.732Z62.113° ENE37.095°2025-07-03 22:53:16.732Z113.254° SE
|